This demonstration page uses our WeatherBlox Daily Observations layout. Learn more.

Left ArrowRight Arrow

41.86663, -103.66717

Hourly Observations for June 2, 2016

Temp ( °F °C ) Dew Point ( °F °C ) Humidity (%) Winds ( mph kmh ) Pressure ( in mb ) Visibility ( mi km ) Precip ( " mm )
12:53 am 00:53 Clear 54 12.2 49 9.4 83 83 E 8 13 29.99 1016 10 16 0.00 0.00
1:53 am 01:53 Clear 53 11.7 49 9.4 86 86 ENE 7 11 29.98 1015 10 16 0.00 0.00
2:53 am 02:53 Clear 52 11.1 48 8.9 86 86 E 6 9 29.98 1015 10 16 0.00 0.00
3:53 am 03:53 Clear 52 11.1 49 9.4 89 89 E 8 13 29.99 1016 10 16 0.00 0.00
4:53 am 04:53 Clear 50 10 47 8.3 89 89 Calm 30.00 1016 10 16 0.00 0.00
5:53 am 05:53 Sunny 48 8.9 45 7.2 89 89 E 6 9 30.01 1016 10 16 0.00 0.00
6:53 am 06:53 Sunny 59 15 52 11.1 78 78 Calm 29.98 1015 10 16 0.00 0.00
7:53 am 07:53 Sunny 63 17.2 52 11.1 68 68 SW 3 6 29.98 1015 10 16 0.00 0.00
8:53 am 08:53 Sunny 68 20 53 11.7 59 59 NW 6 9 29.98 1015 10 16 0.00 0.00
9:53 am 09:53 Sunny 71 21.7 54 12.2 55 55 Calm 29.96 1015 10 16 0.00 0.00
10:53 am 10:53 Sunny 75 23.9 54 12.2 48 48 SW 5 7 29.95 1014 10 16 0.00 0.00
11:53 am 11:53 Sunny 80 26.7 54 12.2 41 41 VRB 5 7 29.93 1014 10 16 0.00 0.00
12:53 pm 12:53 Sunny 83 28.3 44 6.7 25 25 Calm 29.91 1013 10 16 0.00 0.00
1:53 pm 13:53 Sunny 85 29.4 39 3.9 20 20 VRB 3 6 29.88 1012 10 16 0.00 0.00
2:53 pm 14:53 Sunny 85 29.4 42 5.6 22 22 SSE 10 17 29.86 1011 10 16 0.00 0.00
3:53 pm 15:53 Mostly Sunny 88 31.1 38 3.3 17 17 WSW 9 15 29.84 1010 10 16 0.00 0.00
4:53 pm 16:53 Sunny 87 30.6 41 5 20 20 WSW 10 17 29.83 1010 10 16 0.00 0.00
5:53 pm 17:53 Sunny 87 30.6 31 -0.6 13 13 WSW 8 13 29.81 1010 10 16 0.00 0.00
6:53 pm 18:53 Sunny 83 28.3 40 4.4 22 22 W 6 9 29.80 1009 10 16 0.00 0.00
7:53 pm 19:53 Sunny 74 23.3 43 6.1 33 33 WSW 8 13 29.81 1010 10 16 0.00 0.00
8:53 pm 20:53 Clear 70 21.1 51 10.6 51 51 SSE 8 13 29.81 1010 10 16 0.00 0.00
9:53 pm 21:53 Clear 71 21.7 47 8.3 42 42 SSW 12 19 29.82 1010 10 16 0.00 0.00
10:53 pm 22:53 Clear 71 21.7 46 7.8 41 41 S 8 13 29.80 1009 10 16 0.00 0.00
11:53 pm 23:53 Clear 72 22.2 43 6.1 35 35 SSW 17 28 29.77 1008 10 16 0.00 0.00

Powered by AerisWeather